Location: Kapla
(46.2483°N, 15.0094°E)
Time: 15:53:36
(UTC+00:00)

Meteor 1-18 Rocket - Pass Details

Date: 03 March 2021
Orbit: 836 x 909 km, 81.2° (Epoch: 17 April)

Event Time Altitude Azimuth Distance (km) Brightness Sun altitude
Rises 17:47:55 0° 348° (NNW) 3,551 7.6 -11.0°
Reaches altitude 10° 17:50:24 10° 349° (N) 2,606 6.9 -11.4°
Maximum altitude 17:56:23 88° 76° (ENE) 915 4.4 -12.4°
Drops below altitude 10° 18:02:17 10° 170° (S) 2,571 6.6 -13.4°
Sets 18:04:43 0° 171° (S) 3,500 7.3 -13.8°
